Regional Weather Roundup
Issued by NWS

Home | Current Version | Previous Version | Graphics & Text | Print | Product List | Glossary Off
Versions: 1 2 3 4 5 6 7 8 9 10 11 12 13 14 15 16 17 18 19 20 21 22 23 24 25 26 27

000
ASUS43 KDMX 212207
RWRIA

WEATHER ROUNDUP FOR IOWA
NATIONAL WEATHER SERVICE DES MOINES IA
500 PM CDT TUE OCT 21 2014

NOTE: "FAIR" INDICATES FEW OR NO CLOUDS BELOW 12,000 FEET WITH NO
SIGNIFICANT WEATHER AND/OR OBSTRUCTIONS TO VISIBILITY.

* - THESE STATIONS ARE NOT NWS STATIONS...THUS NOT UNDER NWS
QUALITY CONTROL.  THEY ALSO DO NOT REPORT WEATHER SUCH
AS PRECIPITATION OR FOG.

IAZ001>003-012>014-020>022-031>034-043>046-212300-
   NORTHWEST IOWA

CITY           SKY/WX    TMP DP  RH WIND       PRES   REMARKS
CARROLL *      SUNNY     70  41  35 SE8       30.07S
CHEROKEE *     SUNNY     72  41  33 SE9       30.03S
DENISON *      SUNNY     72  39  30 SE7G14    30.03S
LE MARS *      SUNNY     73  43  33 S12G20    30.01F
ORANGE CITY *  SUNNY     75  37  25 S10       30.02S
SHELDON *      SUNNY     72  41  33 SE16G22   30.01F
SIOUX CITY     SUNNY     75  43  31 S12G18    30.01S
SPENCER        SUNNY     69  42  37 SE14      30.06S
STORM LAKE *   SUNNY     70  41  35 SE12G17   30.07S
$$

IAZ055>058-069>071-079>083-090>094-212300-
   SOUTHWEST IOWA

CITY           SKY/WX    TMP DP  RH WIND       PRES   REMARKS
ATLANTIC *     SUNNY     72  37  28 SE9       30.06S
AUDUBON *      SUNNY     70  30  23 SE7       30.09R
CLARINDA *     SUNNY     73  39  29 SE7       30.08S
COUNCIL BLFS * SUNNY     72  43  35 S9        30.03F
CRESTON *      SUNNY     68  43  40 S7        30.09S
HARLAN  *      SUNNY     72  39  30 SE10      30.09S
LAMONI         SUNNY     68  45  43 E7        30.10R
RED OAK *      SUNNY     72  39  30 SE7       30.06S
SHENANDOAH *   SUNNY     73  41  31 SE8       30.06S
$$

IAZ047>049-059>061-072>074-084-212300-
   CENTRAL IOWA

CITY           SKY/WX    TMP DP  RH WIND       PRES   REMARKS
AMES           SUNNY     63  42  46 SE9       30.12R
ANKENY *       SUNNY     64  45  48 SE10      30.12S
CHARITON *     SUNNY     64  45  48 SE8       30.12S
DES MOINES     SUNNY     66  43  43 E8        30.12R
GRINNELL*      SUNNY     61  41  48 E7        30.15R
KNOXVILLE *    SUNNY     63  43  48 SE7       30.12R
MARSHALLTOWN   SUNNY     60  40  47 SE10      30.13S
PELLA *        SUNNY     64  43  45 SE8       30.14S
PERRY *          N/A     66  43  42 SE8       30.10S
$$

IAZ004>006-015-016-023>025-035-036-212300-
   NORTH CENTRAL IOWA

CITY           SKY/WX    TMP DP  RH WIND       PRES   REMARKS
ALGONA *       SUNNY     64  41  42 SE9G16    30.10S
CLARION *      SUNNY     63  39  42 SE9G17    30.12S
ESTHERVILLE    SUNNY     65  41  41 SE15      30.08S
FORT DODGE *   SUNNY     64  45  48 S8        30.11S
MASON CITY     SUNNY     60  41  49 SE10      30.14S
FOREST CITY *  SUNNY     61  43  51 SE9G16    30.13R
IOWA FALLS *     N/A     61  39  44 SE8       30.15R
$$

IAZ007>011-017>019-026>030-037>042-050>054-066-212300-
   NORTHEAST IOWA

CITY           SKY/WX    TMP DP  RH WIND       PRES   REMARKS
CEDAR RAPIDS   SUNNY     59  41  51 E10       30.16R
CHARLES CITY * SUNNY     59  39  47 SE9       30.16S
CLINTON *      SUNNY     55  37  50 E10G16    30.21R
DECORAH *      SUNNY     55  39  54 E5        30.17R
DUBUQUE        SUNNY     54  38  54 E8        30.19R
MONTICELLO *   SUNNY     57  37  47 SE7       30.17S
OELWEIN *      SUNNY     59  39  47 E8        30.17S
WATERLOO       SUNNY     59  39  47 E10       30.15R
$$

IAZ064-065-067-068-078-212300-
   EAST CENTRAL IOWA

CITY           SKY/WX    TMP DP  RH WIND       PRES   REMARKS
DAVENPORT      SUNNY     57  37  47 NE12      30.18R
IOWA CITY      SUNNY     59  39  47 E7        30.17S
MT. PLEASANT * SUNNY     61  39  44 E7        30.16R
MUSCATINE *    SUNNY     61  37  41 NE7       30.17S
QUAD CITIES    SUNNY     58  38  47 E6        30.17R
$$

IAZ062-063-075>077-085>089-095>099-212300-
   SOUTHEAST IOWA

CITY           SKY/WX    TMP DP  RH WIND       PRES   REMARKS
BURLINGTON     SUNNY     60  42  51 N8        30.15S
FAIRFIELD *    SUNNY     61  43  51 E8        30.15S
FORT MADISON * SUNNY     63  43  48 NE7       30.16R
KEOKUK *       SUNNY     63  41  45 VRB6      30.14S
OSKALOOSA *      N/A     63  41  45 E7        30.14S
CENTERVILLE *  SUNNY     64  45  48 E6        30.14S
WASHINGTON *   SUNNY     61  39  44 E9        30.16R
$$

ABBREVIATIONS USED IN REMARKS
   TC - TEMPERATURES IN CELSIUS
  WCI - WIND CHILL INDEX
   HX - HEAT INDEX
  VSB - VISIBILITY
$$




USA.gov is the U.S. government's official web portal to all federal, state and local government web resources and services.